SWA2842 KLAX-KDEN

Flight info

Callsign SWA2842
Flight time 1h 42m
Altitude 37000
Route ORCKA5 LAS J146 DICEE BUMMP SSKII4
Aircraft B738/M-SADE2E3GIJ4RWZ/LB1D1

Departure

Time 2026-04-26 16:29
Airport Los Angeles International Airport (KLAX)

Arrival

Time 2026-04-26 18:12
Airport Denver International Airport (KDEN)
Time Latitude Longitude Altitude Speed Heading
2026-04-26 16:11 33.94694 -118.40061 124 ft 0 kts 264°
2026-04-26 16:22 33.94695 -118.40040 123 ft 4 kts 281°
2026-04-26 16:22 33.94684 -118.40015 119 ft 4 kts 333°
2026-04-26 16:22 33.94679 -118.40012 119 ft 1 kts 343°
2026-04-26 16:25 33.94710 -118.40013 123 ft 10 kts
2026-04-26 16:26 33.94788 -118.40008 123 ft 12 kts
2026-04-26 16:26 33.94836 -118.40034 123 ft 10 kts 303°
2026-04-26 16:26 33.94912 -118.40060 121 ft 11 kts 47°
2026-04-26 16:26 33.94930 -118.39976 124 ft 10 kts 80°
2026-04-26 16:27 33.94938 -118.39947 122 ft 0 kts 63°
2026-04-26 16:28 33.94956 -118.39924 122 ft 10 kts 36°
2026-04-26 16:28 33.95025 -118.39926 123 ft 7 kts 327°
2026-04-26 16:28 33.95039 -118.39981 123 ft 7 kts 266°
2026-04-26 16:29 33.95017 -118.40182 122 ft 59 kts 262°
2026-04-26 16:29 33.94933 -118.40990 121 ft 132 kts 263°
2026-04-26 16:29 33.94812 -118.42271 487 ft 167 kts 263°
2026-04-26 16:29 33.94656 -118.43754 1251 ft 184 kts 262°
2026-04-26 16:30 33.94466 -118.45311 2088 ft 188 kts 261°
2026-04-26 16:30 33.94269 -118.46858 2910 ft 193 kts 265°
2026-04-26 16:30 33.94090 -118.48566 3153 ft 219 kts 258°
2026-04-26 16:30 33.93333 -118.50277 3496 ft 246 kts 228°
2026-04-26 16:31 33.92027 -118.51671 4361 ft 253 kts 223°
2026-04-26 16:31 33.90638 -118.53003 5284 ft 257 kts 222°
2026-04-26 16:31 33.89217 -118.54335 6217 ft 260 kts 222°
2026-04-26 16:31 33.87779 -118.55668 7084 ft 264 kts 221°
2026-04-26 16:32 33.86066 -118.56576 7865 ft 281 kts 190°
2026-04-26 16:32 33.84758 -118.56479 8416 ft 292 kts 168°
2026-04-26 16:32 33.82407 -118.54755 9537 ft 306 kts 134°
2026-04-26 16:32 33.81226 -118.52607 10287 ft 314 kts 112°
2026-04-26 16:33 33.80716 -118.49974 10561 ft 336 kts 89°
2026-04-26 16:33 33.81080 -118.47168 11051 ft 344 kts 65°
2026-04-26 16:33 33.82357 -118.44783 11747 ft 339 kts 38°
2026-04-26 16:33 33.84352 -118.43411 12538 ft 328 kts
2026-04-26 16:34 33.85835 -118.43203 13074 ft 321 kts 352°
2026-04-26 16:34 33.88054 -118.43467 13881 ft 323 kts 349°
2026-04-26 16:34 33.91070 -118.43594 14701 ft 339 kts
2026-04-26 16:34 33.92622 -118.43017 15107 ft 353 kts 22°
2026-04-26 16:35 33.95092 -118.40351 16012 ft 372 kts 50°
2026-04-26 16:35 33.96084 -118.38602 16468 ft 377 kts 53°
2026-04-26 16:35 33.97528 -118.35935 17073 ft 383 kts 53°
2026-04-26 16:35 33.99009 -118.33234 17697 ft 390 kts 53°
2026-04-26 16:36 34.00514 -118.30544 18346 ft 395 kts 52°
2026-04-26 16:36 34.02066 -118.27799 18934 ft 398 kts 52°
2026-04-26 16:36 34.03638 -118.25032 19544 ft 401 kts 52°
2026-04-26 16:36 34.05219 -118.22247 20176 ft 403 kts 52°
2026-04-26 16:37 34.06807 -118.19445 20771 ft 407 kts 52°
2026-04-26 16:37 34.08414 -118.16606 21337 ft 411 kts 53°
2026-04-26 16:37 34.10033 -118.13742 21912 ft 415 kts 53°
2026-04-26 16:37 34.11666 -118.10852 22509 ft 419 kts 53°
2026-04-26 16:38 34.13314 -118.07932 23098 ft 422 kts 53°
2026-04-26 16:38 34.14975 -118.04988 23635 ft 426 kts 53°
2026-04-26 16:38 34.16655 -118.02006 24054 ft 431 kts 53°
2026-04-26 16:38 34.18345 -117.99002 24479 ft 434 kts 53°
2026-04-26 16:39 34.20041 -117.95960 24887 ft 438 kts 53°
2026-04-26 16:39 34.21759 -117.92905 25275 ft 442 kts 53°
2026-04-26 16:39 34.23527 -117.89850 25710 ft 444 kts 52°
2026-04-26 16:39 34.25276 -117.86761 26116 ft 448 kts 53°
2026-04-26 16:40 34.26996 -117.83657 26497 ft 452 kts 54°
2026-04-26 16:40 34.28750 -117.80484 26893 ft 455 kts 54°
2026-04-26 16:40 34.30520 -117.77294 27291 ft 459 kts 53°
2026-04-26 16:40 34.32311 -117.74084 27698 ft 462 kts 53°
2026-04-26 16:41 34.34096 -117.70838 28036 ft 466 kts 55°
2026-04-26 16:41 34.35905 -117.67570 28411 ft 468 kts 52°
2026-04-26 16:41 34.37806 -117.64358 28799 ft 471 kts 51°
2026-04-26 16:41 34.39752 -117.61153 29126 ft 474 kts 51°
2026-04-26 16:42 34.41722 -117.57926 29451 ft 478 kts 51°
2026-04-26 16:42 34.43693 -117.54679 29818 ft 480 kts 51°
2026-04-26 16:42 34.45658 -117.51414 30345 ft 478 kts 51°
2026-04-26 16:42 34.47609 -117.48152 30698 ft 479 kts 51°
2026-04-26 16:43 34.49571 -117.44861 30895 ft 484 kts 51°
2026-04-26 16:43 34.51547 -117.41536 31092 ft 488 kts 51°
2026-04-26 16:43 34.53535 -117.38185 31342 ft 491 kts 51°
2026-04-26 16:43 34.55533 -117.34815 31599 ft 493 kts 51°
2026-04-26 16:44 34.57539 -117.31426 31839 ft 496 kts 51°
2026-04-26 16:44 34.59555 -117.28017 32108 ft 498 kts 51°
2026-04-26 16:44 34.61573 -117.24604 32420 ft 498 kts 51°
2026-04-26 16:44 34.63592 -117.21186 32723 ft 499 kts 51°
2026-04-26 16:45 34.65614 -117.17758 32939 ft 500 kts 51°
2026-04-26 16:45 34.67642 -117.14319 33168 ft 502 kts 51°
2026-04-26 16:45 34.69679 -117.10862 33409 ft 504 kts 51°
2026-04-26 16:45 34.71721 -117.07392 33717 ft 505 kts 51°
2026-04-26 16:46 34.73762 -117.03920 34014 ft 505 kts 52°
2026-04-26 16:46 34.75780 -117.00484 34238 ft 506 kts 52°
2026-04-26 16:46 34.77823 -116.97001 34479 ft 506 kts 52°
2026-04-26 16:46 34.79867 -116.93513 34748 ft 506 kts 52°
2026-04-26 16:47 34.81912 -116.90021 34994 ft 507 kts 52°
2026-04-26 16:47 34.83956 -116.86526 35327 ft 505 kts 52°
2026-04-26 16:47 34.85991 -116.83044 35574 ft 505 kts 52°
2026-04-26 16:47 34.88032 -116.79549 35718 ft 508 kts 52°
2026-04-26 16:48 34.90085 -116.76031 35904 ft 509 kts 52°
2026-04-26 16:48 34.92151 -116.72535 36146 ft 508 kts 49°
2026-04-26 16:48 34.94423 -116.69249 36403 ft 505 kts 44°
2026-04-26 16:48 34.96799 -116.66111 36647 ft 504 kts 43°
2026-04-26 16:49 34.99220 -116.63016 36839 ft 504 kts 43°
2026-04-26 16:49 35.01659 -116.59912 36858 ft 508 kts 43°
2026-04-26 16:49 35.06556 -116.53593 36863 ft 517 kts 44°
2026-04-26 16:50 35.11487 -116.47103 36855 ft 524 kts 44°
2026-04-26 16:50 35.16422 -116.40556 36859 ft 530 kts 44°
2026-04-26 16:51 35.21429 -116.33898 36858 ft 532 kts 45°
2026-04-26 16:51 35.26438 -116.27234 36846 ft 532 kts 45°
2026-04-26 16:52 35.30602 -116.21688 36848 ft 532 kts 45°
2026-04-26 16:52 35.36450 -116.13884 36857 ft 531 kts 45°
2026-04-26 16:53 35.41435 -116.07217 36864 ft 531 kts 45°
2026-04-26 16:53 35.46415 -116.00543 36866 ft 530 kts 45°
2026-04-26 16:54 35.51389 -115.93864 36875 ft 530 kts 45°
2026-04-26 16:54 35.56355 -115.87182 36876 ft 530 kts 45°
2026-04-26 16:55 35.61288 -115.80531 36866 ft 530 kts 45°
2026-04-26 16:55 35.66234 -115.73822 36873 ft 530 kts 45°
2026-04-26 16:56 35.73598 -115.63689 36895 ft 529 kts 45°
2026-04-26 16:57 35.78508 -115.56915 36892 ft 531 kts 45°
2026-04-26 16:57 35.85899 -115.46705 36863 ft 533 kts 45°
2026-04-26 16:58 35.89998 -115.41031 36859 ft 533 kts 45°
2026-04-26 16:59 35.98228 -115.29614 36839 ft 532 kts 45°
2026-04-26 17:00 36.07752 -115.15648 36805 ft 534 kts 57°
2026-04-26 17:00 36.10826 -115.07373 36833 ft 535 kts 70°
2026-04-26 17:00 36.12080 -115.03038 36807 ft 535 kts 70°
2026-04-26 17:01 36.14611 -114.94383 36741 ft 535 kts 70°
2026-04-26 17:01 36.17233 -114.85767 36735 ft 535 kts 69°
2026-04-26 17:02 36.19873 -114.77140 36733 ft 536 kts 69°
2026-04-26 17:02 36.22523 -114.68511 36722 ft 535 kts 69°
2026-04-26 17:03 36.25163 -114.59888 36716 ft 536 kts 69°
2026-04-26 17:03 36.27799 -114.51243 36745 ft 536 kts 69°
2026-04-26 17:04 36.30422 -114.42611 36717 ft 535 kts 69°
2026-04-26 17:04 36.33037 -114.33978 36729 ft 534 kts 70°
2026-04-26 17:05 36.35641 -114.25356 36722 ft 533 kts 70°
2026-04-26 17:05 36.38235 -114.16742 36735 ft 533 kts 70°
2026-04-26 17:06 36.40818 -114.08138 36739 ft 532 kts 70°
2026-04-26 17:06 36.43382 -113.99570 36755 ft 533 kts 70°
2026-04-26 17:07 36.45959 -113.90933 36734 ft 533 kts 70°
2026-04-26 17:07 36.48526 -113.82301 36743 ft 533 kts 70°
2026-04-26 17:08 36.51094 -113.73644 36746 ft 534 kts 70°
2026-04-26 17:08 36.53658 -113.64969 36740 ft 536 kts 70°
2026-04-26 17:09 36.55793 -113.57723 36748 ft 537 kts 70°
2026-04-26 17:09 36.58795 -113.47508 36742 ft 538 kts 70°
2026-04-26 17:10 36.61359 -113.38752 36737 ft 539 kts 70°
2026-04-26 17:10 36.63918 -113.29975 36739 ft 540 kts 70°
2026-04-26 17:11 36.66459 -113.21177 36757 ft 540 kts 71°
2026-04-26 17:11 36.68992 -113.12367 36773 ft 541 kts 71°
2026-04-26 17:12 36.72786 -112.99134 36815 ft 541 kts 71°
2026-04-26 17:13 36.76570 -112.85881 36794 ft 541 kts 71°
2026-04-26 17:14 36.80319 -112.72680 36769 ft 540 kts 71°
2026-04-26 17:14 36.84056 -112.59456 36722 ft 538 kts 71°
2026-04-26 17:15 36.87777 -112.46228 36724 ft 538 kts 71°
2026-04-26 17:16 36.90252 -112.37409 36717 ft 538 kts 71°
2026-04-26 17:16 36.92726 -112.28594 36721 ft 538 kts 71°
2026-04-26 17:17 36.95199 -112.19759 36718 ft 538 kts 71°
2026-04-26 17:17 36.97665 -112.10920 36708 ft 538 kts 71°
2026-04-26 17:18 37.00125 -112.02071 36693 ft 538 kts 71°
2026-04-26 17:18 37.02561 -111.93275 36692 ft 538 kts 71°
2026-04-26 17:19 37.06225 -111.79993 36723 ft 538 kts 72°
2026-04-26 17:19 37.08659 -111.71134 36705 ft 537 kts 72°
2026-04-26 17:20 37.10282 -111.65210 36702 ft 537 kts 72°
2026-04-26 17:20 37.13498 -111.53433 36731 ft 536 kts 72°
2026-04-26 17:21 37.15897 -111.44594 36752 ft 536 kts 72°
2026-04-26 17:21 37.18298 -111.35759 36743 ft 534 kts 72°
2026-04-26 17:22 37.20282 -111.28410 36706 ft 536 kts 72°
2026-04-26 17:22 37.23353 -111.18244 36701 ft 536 kts 64°
2026-04-26 17:23 37.26136 -111.11296 36678 ft 537 kts 62°
2026-04-26 17:23 37.29604 -111.02926 36679 ft 537 kts 63°
2026-04-26 17:24 37.32974 -110.94609 36674 ft 537 kts 63°
2026-04-26 17:24 37.36307 -110.86208 36664 ft 538 kts 63°
2026-04-26 17:25 37.39630 -110.77766 36660 ft 538 kts 64°
2026-04-26 17:25 37.42949 -110.69323 36661 ft 539 kts 64°
2026-04-26 17:26 37.46269 -110.60864 36663 ft 539 kts 64°
2026-04-26 17:26 37.49588 -110.52392 36663 ft 540 kts 64°
2026-04-26 17:27 37.52902 -110.43906 36667 ft 540 kts 64°
2026-04-26 17:27 37.56210 -110.35410 36684 ft 540 kts 64°
2026-04-26 17:28 37.59509 -110.26917 36680 ft 539 kts 64°
2026-04-26 17:28 37.62795 -110.18432 36697 ft 538 kts 64°
2026-04-26 17:29 37.65518 -110.11385 36661 ft 537 kts 64°
2026-04-26 17:29 37.69314 -110.01533 36693 ft 537 kts 64°
2026-04-26 17:30 37.72581 -109.93031 36706 ft 538 kts 65°
2026-04-26 17:30 37.75839 -109.84522 36704 ft 538 kts 64°
2026-04-26 17:31 37.79094 -109.76001 36695 ft 538 kts 65°
2026-04-26 17:31 37.82342 -109.67477 36750 ft 538 kts 65°
2026-04-26 17:32 37.85589 -109.58934 36751 ft 539 kts 65°
2026-04-26 17:32 37.88832 -109.50378 36757 ft 539 kts 65°
2026-04-26 17:33 37.92066 -109.41818 36714 ft 538 kts 65°
2026-04-26 17:34 37.96902 -109.28968 36741 ft 539 kts 65°
2026-04-26 17:34 38.00128 -109.20370 36726 ft 540 kts 65°
2026-04-26 17:35 38.03329 -109.11813 36721 ft 540 kts 65°
2026-04-26 17:35 38.06545 -109.03193 36717 ft 541 kts 65°
2026-04-26 17:36 38.09759 -108.94557 36723 ft 541 kts 66°
2026-04-26 17:36 38.13061 -108.85965 36724 ft 541 kts 64°
2026-04-26 17:37 38.16455 -108.77429 36708 ft 541 kts 63°
2026-04-26 17:37 38.19836 -108.68886 36727 ft 541 kts 64°
2026-04-26 17:38 38.24855 -108.56049 36752 ft 540 kts 64°
2026-04-26 17:38 38.28194 -108.47466 36742 ft 541 kts 64°
2026-04-26 17:39 38.31528 -108.38875 36741 ft 542 kts 64°
2026-04-26 17:39 38.34846 -108.30304 36736 ft 543 kts 64°
2026-04-26 17:40 38.37634 -108.23083 36776 ft 541 kts 64°
2026-04-26 17:40 38.41478 -108.13100 36811 ft 538 kts 64°
2026-04-26 17:41 38.44763 -108.04545 36843 ft 537 kts 64°
2026-04-26 17:41 38.48026 -107.95995 36867 ft 535 kts 65°
2026-04-26 17:42 38.51258 -107.87432 36873 ft 535 kts 65°
2026-04-26 17:42 38.54478 -107.78872 36752 ft 535 kts 65°
2026-04-26 17:43 38.57699 -107.70299 36742 ft 535 kts 65°
2026-04-26 17:43 38.60916 -107.61714 36756 ft 535 kts 65°
2026-04-26 17:44 38.64122 -107.53136 36779 ft 535 kts 65°
2026-04-26 17:44 38.67314 -107.44606 36795 ft 536 kts 65°
2026-04-26 17:45 38.70559 -107.36045 36751 ft 526 kts 64°
2026-04-26 17:45 38.72138 -107.31872 36535 ft 516 kts 65°
2026-04-26 17:45 38.73690 -107.27774 36291 ft 507 kts 65°
2026-04-26 17:46 38.75224 -107.23720 35897 ft 503 kts 65°
2026-04-26 17:46 38.76742 -107.19701 35510 ft 499 kts 65°
2026-04-26 17:46 38.78245 -107.15707 35108 ft 496 kts 65°
2026-04-26 17:46 38.79735 -107.11739 34732 ft 492 kts 66°
2026-04-26 17:47 38.81213 -107.07793 34341 ft 490 kts 66°
2026-04-26 17:47 38.82187 -107.05188 34083 ft 488 kts 66°
2026-04-26 17:47 38.84142 -106.99956 33491 ft 485 kts 66°
2026-04-26 17:47 38.85597 -106.96059 33084 ft 481 kts 66°
2026-04-26 17:48 38.87034 -106.92205 32711 ft 477 kts 66°
2026-04-26 17:48 38.88459 -106.88379 32317 ft 473 kts 66°
2026-04-26 17:48 38.89872 -106.84584 31965 ft 468 kts 66°
2026-04-26 17:48 38.91249 -106.80875 31616 ft 465 kts 67°
2026-04-26 17:49 38.92633 -106.77145 31250 ft 461 kts 67°
2026-04-26 17:49 38.94004 -106.73441 30882 ft 458 kts 67°
2026-04-26 17:49 38.95363 -106.69768 30482 ft 454 kts 67°
2026-04-26 17:49 38.96709 -106.66123 30186 ft 447 kts 66°
2026-04-26 17:50 38.98036 -106.62530 29817 ft 444 kts 67°
2026-04-26 17:50 38.99355 -106.58958 29428 ft 439 kts 67°
2026-04-26 17:50 39.00650 -106.55434 29132 ft 433 kts 67°
2026-04-26 17:50 39.01923 -106.51963 28865 ft 426 kts 68°
2026-04-26 17:51 39.03177 -106.48545 28595 ft 420 kts 68°
2026-04-26 17:51 39.04413 -106.45166 28320 ft 415 kts 67°
2026-04-26 17:51 39.05633 -106.41819 28066 ft 412 kts 68°
2026-04-26 17:51 39.06845 -106.38482 27831 ft 409 kts 68°
2026-04-26 17:52 39.08049 -106.35177 27559 ft 406 kts 67°
2026-04-26 17:52 39.09238 -106.31913 27304 ft 400 kts 66°
2026-04-26 17:52 39.10416 -106.28677 26968 ft 398 kts 67°
2026-04-26 17:52 39.11583 -106.25463 26630 ft 395 kts 68°
2026-04-26 17:53 39.12744 -106.22258 26275 ft 394 kts 67°
2026-04-26 17:53 39.13917 -106.19019 25917 ft 408 kts 67°
2026-04-26 17:53 39.15133 -106.15651 25551 ft 432 kts 67°
2026-04-26 17:54 39.17727 -106.08446 24645 ft 444 kts 67°
2026-04-26 17:54 39.19020 -106.04855 24218 ft 439 kts 67°
2026-04-26 17:54 39.20293 -106.01313 23895 ft 432 kts 67°
2026-04-26 17:54 39.21547 -105.97816 23500 ft 427 kts 67°
2026-04-26 17:55 39.22786 -105.94354 23114 ft 423 kts 67°
2026-04-26 17:55 39.24016 -105.90917 22618 ft 420 kts 66°
2026-04-26 17:55 39.25237 -105.87521 22218 ft 416 kts 66°
2026-04-26 17:55 39.26457 -105.84141 21836 ft 413 kts 66°
2026-04-26 17:56 39.27660 -105.80802 21456 ft 409 kts 66°
2026-04-26 17:56 39.30041 -105.74183 20692 ft 403 kts 66°
2026-04-26 17:57 39.32385 -105.67647 19968 ft 399 kts 66°
2026-04-26 17:57 39.33559 -105.64401 19550 ft 400 kts 65°
2026-04-26 17:57 39.34746 -105.61154 19157 ft 399 kts 65°
2026-04-26 17:57 39.35930 -105.57919 18784 ft 399 kts 65°
2026-04-26 17:58 39.39467 -105.48218 17622 ft 396 kts 65°
2026-04-26 17:59 39.41609 -105.41766 16837 ft 379 kts 81°
2026-04-26 17:59 39.41797 -105.38458 16540 ft 361 kts 93°
2026-04-26 17:59 39.41805 -105.35239 16225 ft 357 kts 94°
2026-04-26 17:59 39.41795 -105.32038 15886 ft 355 kts 94°
2026-04-26 18:00 39.41788 -105.28898 15566 ft 353 kts 94°
2026-04-26 18:00 39.41788 -105.25731 15216 ft 352 kts 94°
2026-04-26 18:00 39.41794 -105.22573 14877 ft 351 kts 94°
2026-04-26 18:00 39.41806 -105.19428 14575 ft 349 kts 94°
2026-04-26 18:01 39.41818 -105.16289 14257 ft 349 kts 94°
2026-04-26 18:01 39.41831 -105.13157 13927 ft 348 kts 94°
2026-04-26 18:01 39.41843 -105.10040 13624 ft 346 kts 94°
2026-04-26 18:01 39.41857 -105.06961 13465 ft 338 kts 95°
2026-04-26 18:02 39.41868 -105.03951 13331 ft 332 kts 94°
2026-04-26 18:02 39.41872 -105.02946 13279 ft 331 kts 94°
2026-04-26 18:02 39.41889 -104.98126 13118 ft 309 kts 94°
2026-04-26 18:02 39.41901 -104.95434 12995 ft 291 kts 95°
2026-04-26 18:03 39.41977 -104.92849 12744 ft 287 kts 89°
2026-04-26 18:03 39.42205 -104.90314 12477 ft 280 kts 86°
2026-04-26 18:03 39.42446 -104.87842 12225 ft 275 kts 86°
2026-04-26 18:03 39.42678 -104.85406 11948 ft 271 kts 86°
2026-04-26 18:04 39.42900 -104.83008 11686 ft 266 kts 86°
2026-04-26 18:04 39.43112 -104.80652 11433 ft 261 kts 86°
2026-04-26 18:04 39.43317 -104.78339 11184 ft 258 kts 86°
2026-04-26 18:05 39.44146 -104.73805 10741 ft 263 kts 69°
2026-04-26 18:05 39.45106 -104.71804 10477 ft 266 kts 42°
2026-04-26 18:05 39.46653 -104.70523 10300 ft 263 kts 27°
2026-04-26 18:05 39.48296 -104.69491 10085 ft 262 kts 22°
2026-04-26 18:06 39.50059 -104.69070 9996 ft 258 kts 357°
2026-04-26 18:06 39.51836 -104.69134 9993 ft 260 kts 359°
2026-04-26 18:06 39.53649 -104.69118 9987 ft 261 kts 359°
2026-04-26 18:06 39.55478 -104.69087 9982 ft 264 kts 358°
2026-04-26 18:07 39.57322 -104.69060 9978 ft 265 kts 358°
2026-04-26 18:07 39.59173 -104.69037 9942 ft 266 kts 358°
2026-04-26 18:07 39.61031 -104.69016 9699 ft 265 kts 358°
2026-04-26 18:07 39.61650 -104.69008 9628 ft 262 kts 358°
2026-04-26 18:08 39.64593 -104.68973 9235 ft 246 kts 358°
2026-04-26 18:08 39.66288 -104.68953 9001 ft 241 kts 359°
2026-04-26 18:08 39.67966 -104.68934 8703 ft 242 kts 359°
2026-04-26 18:08 39.69651 -104.68915 8429 ft 242 kts 359°
2026-04-26 18:09 39.71317 -104.68895 8131 ft 237 kts 359°
2026-04-26 18:09 39.72947 -104.68876 7834 ft 231 kts 359°
2026-04-26 18:09 39.74533 -104.68858 7567 ft 225 kts 359°
2026-04-26 18:09 39.76067 -104.68840 7300 ft 216 kts 360°
2026-04-26 18:10 39.77539 -104.68822 7064 ft 208 kts
2026-04-26 18:10 39.79002 -104.68806 6902 ft 212 kts 360°
2026-04-26 18:10 39.79972 -104.68794 6741 ft 207 kts
2026-04-26 18:10 39.81358 -104.68778 6497 ft 191 kts
2026-04-26 18:11 39.82633 -104.68770 6170 ft 174 kts
2026-04-26 18:11 39.83798 -104.68762 5852 ft 162 kts
2026-04-26 18:11 39.84881 -104.68736 5670 ft 151 kts
2026-04-26 18:11 39.85919 -104.68723 5485 ft 148 kts 359°
2026-04-26 18:12 39.86923 -104.68713 5360 ft 135 kts
2026-04-26 18:12 39.87640 -104.68708 5363 ft 71 kts
2026-04-26 18:12 39.87968 -104.68702 5365 ft 38 kts
2026-04-26 18:12 39.88226 -104.68697 5359 ft 36 kts
2026-04-26 18:13 39.88436 -104.68668 5354 ft 26 kts 15°
2026-04-26 18:13 39.88584 -104.68582 5356 ft 18 kts 36°
2026-04-26 18:13 39.88551 -104.68482 5357 ft 16 kts 181°
2026-04-26 18:13 39.88477 -104.68483 5356 ft 16 kts 179°
2026-04-26 18:14 39.88329 -104.68486 5358 ft 16 kts 180°
2026-04-26 18:14 39.88219 -104.68487 5360 ft 16 kts 180°
2026-04-26 18:14 39.88103 -104.68488 5361 ft 18 kts 180°
2026-04-26 18:14 39.87980 -104.68489 5362 ft 18 kts 180°
2026-04-26 18:15 39.87853 -104.68490 5362 ft 20 kts 180°
2026-04-26 18:15 39.87714 -104.68492 5363 ft 20 kts 181°
2026-04-26 18:15 39.87578 -104.68494 5362 ft 19 kts 181°
2026-04-26 18:15 39.87447 -104.68496 5360 ft 19 kts 180°
2026-04-26 18:16 39.87320 -104.68497 5358 ft 18 kts 180°
2026-04-26 18:16 39.87075 -104.68499 5359 ft 19 kts 180°
2026-04-26 18:16 39.86928 -104.68501 5358 ft 22 kts 180°
2026-04-26 18:17 39.86778 -104.68502 5363 ft 21 kts 180°
2026-04-26 18:17 39.86632 -104.68504 5363 ft 21 kts 180°
2026-04-26 18:17 39.86490 -104.68505 5364 ft 20 kts 180°
2026-04-26 18:17 39.86353 -104.68507 5365 ft 19 kts 180°
2026-04-26 18:18 39.86217 -104.68509 5362 ft 16 kts 180°
2026-04-26 18:18 39.86144 -104.68468 5363 ft 12 kts 116°
2026-04-26 18:18 39.86139 -104.68361 5370 ft 12 kts 89°
2026-04-26 18:18 39.86139 -104.68256 5377 ft 11 kts 91°
2026-04-26 18:19 39.86138 -104.68151 5385 ft 13 kts 90°
2026-04-26 18:19 39.86139 -104.68031 5385 ft 13 kts 89°
2026-04-26 18:19 39.86138 -104.67915 5385 ft 13 kts 91°
2026-04-26 18:19 39.86144 -104.67810 5385 ft 10 kts 59°
2026-04-26 18:20 39.86193 -104.67750 5385 ft 9 kts 38°
2026-04-26 18:20 39.86252 -104.67737 5385 ft 6 kts 359°
2026-04-26 18:20 39.86255 -104.67737 5385 ft 0 kts 359°